Regional Weather Roundup
Issued by NWS

Home | Current Version | Previous Version | Graphics & Text | Print | Product List | Glossary On
Versions: 1 2 3 4 5 6 7 8 9 10 11 12 13 14 15 16 17 18 19 20 21 22 23 24 25 26 27
000
ASUS45 KTFX 280010
RWRMT
MONTANA REGIONAL WEATHER ROUNDUP
NATIONAL WEATHER SERVICE GREAT FALLS MT
600 PM MDT WED JUL 27 2016

NOTE: "FAIR" INDICATES FEW OR NO CLOUDS BELOW 12000 FEET WITH NO
SIGNIFICANT WEATHER AND/OR OBSTRUCTIONS TO VISIBILITY.

MTZ001>007-043-280100-
WEST OF THE DIVIDE

CITY           SKY/WX    TMP DP  RH WIND       PRES   REMARKS
KALISPELL      MOSUNNY   87  46  24 E10       30.04F
MISSOULA       MOSUNNY   90  44  20 N12       30.05S
BUTTE          MOSUNNY   82  38  20 VRB5      30.18F
MULLAN PASS    PTSUNNY   74  45  35 VRB6      30.26F
ANACONDA         N/A     82  45  26 N7        30.14F
DEER LODGE       N/A     84  41  21 NE3       30.16F
EUREKA           N/A     88  41  19 NE5G16    30.05F
HAMILTON         N/A     88  50  27 N9        30.05F
LIBBY            N/A     93  46  20 S5        30.02F
PLAINS           N/A     82  57  42 CALM      30.05R
RONAN            N/A     81  50  33 N5        30.11F
$$

MTZ008-052>055-280100-
SOUTHWEST MONTANA

CITY           SKY/WX    TMP DP  RH WIND       PRES   REMARKS
BOZEMAN        SUNNY     86  46  24 NW10      30.11F
DILLON         SUNNY     88  37  16 NE7       30.11F
W YELLOWSTONE  CLOUDY    77  36  22 W7        30.27R
ENNIS          SUNNY     86  34  15 NW10G18   30.19S
THREE FORKS      N/A     88  88 100 N9        30.09F HX 121
TWIN BRIDGES     N/A     89  38  16 NW10      30.09F
$$

MTZ009-010-012-014-046-048-049-054-280100-
EAST SLOPES AND CENTRAL MONTANA

CITY           SKY/WX    TMP DP  RH WIND       PRES   REMARKS
CUT BANK         N/A     77  48  35 NE7       30.17S
GREAT FALLS    MOSUNNY   82  47  29 NE9       30.13F
MALMSTROM AFB  SUNNY     83  48  29 NE8G16    30.13F
HELENA         MOSUNNY   83  49  30 N7        30.11R
CHOTEAU          N/A     82  46  28 VRB6      30.17F
$$

MTZ011-013-016-021-045-047-050-051-280100-
NORTH CENTRAL MONTANA

CITY           SKY/WX    TMP DP  RH WIND       PRES   REMARKS
HAVRE          CLOUDY    76  59  55 E10       30.14F
LEWISTOWN      SUNNY     79  53  40 NE10      30.18F
N BAR RANCH      N/A     75  50  41 N14G20    30.21R
CHINOOK          N/A     72  61  68 E7        30.15F
$$

MTZ017>020-022>027-061-062-280100-
NORTHEAST MONTANA

CITY           SKY/WX    TMP DP  RH WIND       PRES   REMARKS
GLASGOW        RAIN      65  59  81 NE17G25   30.12R
JORDAN           N/A     75  62  64 NE9       30.11R
SIDNEY         PTSUNNY   74  59  59 NE12      30.12F
WOLF POINT     CLOUDY    76  59  55 E8        30.12F
PLENTYWOOD       N/A     73  54  49 E6        30.14S
$$

MTZ028>42-056>058-280100-
SOUTHCENTRAL AND SOUTHEAST MONTANA

CITY           SKY/WX    TMP DP  RH WIND       PRES   REMARKS
BAKER          MOSUNNY   76  59  55 E7        30.13S
BILLINGS       CLOUDY    78  57  48 NE15      30.11S THUNDER
LIVINGSTON     SUNNY     86  46  24 E22G28    30.11F
MILES CITY     SUNNY     84  57  39 E12       30.05F
FORSYTH          N/A     86  55  35 NE5       30.06S
LAUREL           N/A     81  54  39 N13       30.09S
ROUNDUP          N/A     80  57  45 CALM      30.03F
$$

REGIONAL REPORTS...DAKOTAS

CITY           SKY/WX    TMP DP  RH WIND       PRES   REMARKS
WILLISTON      PTSUNNY   68  61  78 E9        30.13F
MINOT          CLOUDY    75  59  57 NE8       30.11S
DICKINSON      CLOUDY    73  58  59 NE7       30.10F
BEACH            N/A     73  59  60 NE10      30.15F
CROSBY         PTSUNNY   70  63  78 E5        30.16S
WATFORD CITY     N/A    N/A N/A N/A MISG        N/A
BISMARCK       PTSUNNY   74  61  63 E5        30.09R
GRAND FORKS    MOSUNNY   75  59  57 N13       30.03S
FARGO          MOSUNNY   77  58  51 N13       30.01S
BUFFALO SD       N/A     77  53  43 E9        30.06S
RAPID CITY     SUNNY     79  59  50 NE7       30.10F
$$

REGIONAL REPORTS...WYOMING/IDAHO/WASHINGTON

CITY           SKY/WX    TMP DP  RH WIND       PRES   REMARKS
GILLETTE       CLOUDY    75  62  64 S7        30.14R
SHERIDAN       SUNNY     90  47  22 N7        30.09F
BUFFALO WY     SUNNY     86  49  27 N10G17    30.17S
CODY           SUNNY     84  45  24 NE10      30.15S
YELLOWSTONE LA   N/A     66  38  35 NW14G25   30.39R
IDAHO FALLS    MOSUNNY   92  34  13 SE13      30.09F
SALMON         SUNNY     91  45  19 N5        30.00R
BOISE          SUNNY    100  38  11 NW15      29.94F HX  95
SPOKANE        MOSUNNY   92  44  19 W7        30.02F
$$

REGIONAL REPORTS...ALBERTA

CITY           SKY/WX    TMP DP  RH WIND       PRES   REMARKS
EDMONTON       SUNNY     77  52  41 SW7       30.11F
CALGARY        PTSUNNY   75  54  46 E12       30.18S
LETHBRIDGE     PTSUNNY   75  57  53 E3        30.15S THUNDER
WATERTON GATE    N/A     70  54  56 S1          N/A
MILK RIVER       N/A     79  55  44 NE5         N/A
ONEFOUR          N/A     75  54  46 E10         N/A
$$

REGIONAL REPORTS...SASKATCHEWAN

CITY           SKY/WX    TMP DP  RH WIND       PRES   REMARKS
SWIFT CURRENT  MOSUNNY   73  48  40 NE13      30.16F
REGINA         PTSUNNY   75  55  50 SE7       30.15S
SASKATOON      MOSUNNY   79  52  38 S5        30.15F
CYPRESS HILLS    N/A     66  50  55 E6          N/A
VAL MARIE        N/A     72  59  64 SE7         N/A
ROCKGLEN         N/A     72  52  49 E6          N/A
ASSINIBOIA       N/A     72  59  64 W6          N/A
$$




USA.gov is the U.S. government's official web portal to all federal, state and local government web resources and services.